x

Ilm2 - 5 Miles Se Of Wrightsville Beach, Nc (41038) Weather Station

12:08 - Sun 3rd May 2015 All times are EDT. -4 hours from GMT.

  • Wind
    4mph
  • Sea Temp 67°f
  • Air Temp 69°f
  • Sea Pressure 1023.2mb
  • Ilm2 - 5 Miles Se Of Wrightsville Beach, Nc
  • Ilm2 - 5 Miles Se Of Wrightsville Beach, Nc

More Historic Weather Station data

Upgrade to MSW Pro to gain access to the past 30 days of data for over 8000 Wavebouys and Weather Stations around the globe.

Join Pro

Comparision Forecast

View Surf forecast
   
dim. 05/03 12:08 4
mph
1023.2mb 67f 69f
11:53 2 4 mph 1023.2mb 67f 69f
11:38 2 4 mph 1023.2mb 67f 68f
11:23 2 4 mph 1023.1mb 67f 67f
11:08 2 4 mph 1023mb 67f 67f
10:08 4 7 mph 1022.7mb 66f 65f
9:53 4 7 mph 1022.5mb 66f 65f
9:38 4 7 mph 1022.4mb 66f 65f
9:23 4 7 mph 1022.3mb 66f 65f
9:08 4 7 mph 1022.3mb 66f 65f
8:53 4 7 mph 1021.9mb 66f 66f
8:38 4 7 mph 1021.7mb 66f 65f
8:23 2 4 mph 1021.7mb 66f 65f
8:08 4 7 mph 1021.6mb 66f 64f
7:53 4 7 mph 1021.5mb 66f 65f
7:38 4 7 mph 1021.4mb 66f 64f
7:23 2 7 mph 1021.3mb 66f 65f
7:08 4 7 mph 1020.9mb 66f 64f
6:53 4 7 mph 1020.8mb 66f 64f
6:38 4 7 mph 1020.6mb 66f 64f
6:23 4 7 mph 1020.3mb 66f 64f
6:08 4 7 mph 1020.1mb 66f 64f
5:53 4 9 mph 1020mb 66f 64f
5:38 4 7 mph 1019.9mb 66f 64f
5:23 4 7 mph 1019.8mb 66f 64f
5:08 4 7 mph 1019.8mb 66f 64f
4:53 4 7 mph 1019.8mb 66f 64f
4:38 4 7 mph 1019.7mb 66f 64f
4:23 7 9 mph 1019.7mb 66f 64f
4:08 7 9 mph 1019.6mb 66f 64f
3:53 7 9 mph 1019.6mb 66f 64f
3:38 7 9 mph 1019.4mb 66f 64f
3:23 7 9 mph 1019.4mb 66f 64f
3:08 7 9 mph 1019.5mb 66f 64f
2:08 7 9 mph 1019.6mb 66f 65f
1:53 7 9 mph 1019.6mb 66f 65f
1:38 7 9 mph 1019.6mb 66f 65f
1:23 7 11 mph 1019.8mb 66f 65f
1:08 7 11 mph 1019.9mb 66f 65f
12:53 7 11 mph 1019.9mb 66f 65f
12:38 7 11 mph 1019.9mb 66f 65f
12:23 4 7 mph 1019.8mb 66f 65f
12:08 7 9 mph 1019.7mb 66f 65f
sam. 05/02 11:53 7 9 mph 1019.8mb 66f 65f
11:38 7 11 mph 1019.6mb 66f 65f
11:23 7 9 mph 1019.6mb 66f 65f
11:08 7 11 mph 1019.5mb 66f 65f
10:53 9 11 mph 1019.5mb 66f 65f
10:38 9 11 mph 1019.2mb 66f 66f
10:23 9 11 mph 1019.1mb 66f 66f
10:08 9 13 mph 1018.9mb 66f 66f
9:53 9 13 mph 1018.6mb 66f 66f
9:38 9 11 mph 1018.5mb 66f 66f
9:23 7 11 mph 1018.3mb 66f 66f
9:08 7 9 mph 1018mb 66f 66f
8:53 9 11 mph 1017.7mb 66f 66f
8:38 9 13 mph 1017.7mb 67f 66f
8:23 9 11 mph 1017.6mb 67f 66f
8:08 7 11 mph 1017.4mb 67f 66f
7:53 9 11 mph 1017.3mb 67f 66f
7:38 9 13 mph 1017.2mb 67f 66f
7:23 9 16 mph 1016.9mb 67f 66f
7:08 9 13 mph 1016.8mb 67f 66f
6:53 9 16 mph 1016.6mb 67f 66f
6:38 9 13 mph 1016.5mb 67f 66f
6:23 9 16 mph 1016.5mb 67f 66f
6:08 9 13 mph 1016.4mb 67f 66f
5:53 9 16 mph 1016.4mb 67f 66f
5:38 9 11 mph 1016.3mb 67f 66f
5:23 9 11 mph 1016.3mb 67f 66f
5:08 7 11 mph 1016.3mb 67f 66f
4:53 9 11 mph 1016.2mb 67f 66f
4:38 9 11 mph 1016.2mb 67f 65f
4:23 9 11 mph 1016.3mb 67f 65f
4:08 7 9 mph 1016.3mb 67f 65f
3:53 9 16 mph 1016.4mb 67f 65f
3:38 9 13 mph 1016.3mb 67f 65f
3:23 7 11 mph 1016.4mb 67f 66f
3:08 9
mph
1016.7mb 67f 66f
2:53 7 9 mph 1016.8mb 67f 66f
2:38 7 9 mph 1017mb 67f 65f
2:23 7 9 mph 1017mb 67f 65f
2:08 7
mph
1017.1mb 67f 66f
1:53 4 7 mph 1017.1mb 66f 65f
1:38 4 7 mph 1017.2mb 66f 65f
1:23 4 7 mph 1017.3mb 66f 65f
1:08 4 9 mph 1017.3mb 66f 64f
12:53 4 7 mph 1017.2mb 66f 64f
12:38 4 7 mph 1017.2mb 66f 64f
12:23 2 4 mph 1017.3mb 66f 64f
12:08 2 4 mph 1017.4mb 66f 64f
11:53 2 4 mph 1017.3mb 66f 64f
11:38  -  2 mph 1017.4mb 65f 65f
11:23 2
mph
1017.4mb 65f 64f
11:08 2 4 mph 1017.4mb 65f 63f
10:53 4 7 mph 1017.3mb 65f 62f
10:38 4 9 mph 1017.3mb 65f 62f
10:23 7 9 mph 1017.1mb 65f 61f
10:08 9 11 mph 1017mb 65f 61f
9:53 9 13 mph 1016.8mb 65f 61f
9:38 11 13 mph 1016.7mb 65f 60f
9:23 11 16 mph 1016.5mb 65f 60f
9:08 11 18 mph 1016.5mb 65f 60f
8:53 13 18 mph 1016.4mb 65f 59f
8:38 13 18 mph 1016.4mb 65f 58f
8:23 13 20 mph 1016.3mb 65f 58f
8:08 16 20 mph 1016.3mb 65f 58f
7:53 13 20 mph 1016.2mb 65f 58f
7:38 16 20 mph 1016.3mb 65f 57f
7:23 13 20 mph 1015.9mb 65f 57f
7:08 13 18 mph 1016mb 65f 56f
6:53 13 20 mph 1015.9mb 65f 56f
6:38 13 18 mph 1015.7mb 65f 56f
6:23 16 20 mph 1015.5mb 65f 56f
6:08 16 20 mph 1015.3mb 65f 56f
5:53 16 22 mph 1015.2mb 65f 56f
5:38 13 20 mph 1015.1mb 65f 56f
5:23 13 18 mph 1015.1mb 65f 56f
5:08 13 20 mph 1015.1mb 65f 57f
4:53 16 20 mph 1015.1mb 65f 57f
4:38 16 20 mph 1015.1mb 65f 57f
4:23 16 20 mph 1015mb 65f 57f
4:08 16 20 mph 1014.9mb 65f 57f
3:53 16 22 mph 1014.9mb 65f 57f
3:38 16 22 mph 1014.8mb 65f 57f
3:23 18 22 mph 1014.9mb 65f 56f
3:08 16 22 mph 1015mb 65f 57f
2:53 16 22 mph 1014.9mb 65f 56f
2:38 18 22 mph 1015mb 65f 56f
2:23 16 22 mph 1015mb 65f 56f
2:08 16 20 mph 1015.1mb 65f 56f
1:53 16 20 mph 1015mb 65f 56f
1:38 16 20 mph 1015.3mb 65f 56f
1:23 13 18 mph 1015.4mb 65f 56f
1:08 16 22 mph 1015.4mb 65f 56f
12:53 16 22 mph 1015.3mb 65f 56f
12:38 16 20 mph 1015.2mb 65f 56f
12:23 18 25 mph 1015.5mb 65f 57f
12:08 18 25 mph 1015.3mb 65f 57f
ven. 05/01 11:53 20 25 mph 1015.2mb 65f 56f
11:38 18 25 mph 1015.2mb 65f 57f
11:23 20 27 mph 1015.2mb 65f 56f
11:08 18 25 mph 1015mb 65f 56f
10:53 20 27 mph 1014.9mb 65f 56f
10:08 22 29 mph 1014.9mb 65f 57f
9:53 20 27 mph 1014.7mb 65f 57f
9:38 20 31 mph 1014.3mb 65f 57f
9:23 22 29 mph 1014.1mb 65f 57f
9:08 22 31 mph 1013.8mb 66f 58f
8:53 22 29 mph 1013.4mb 66f 58f
8:38 25 29 mph 1013.1mb 66f 58f
8:23 25 31 mph 1012.7mb 66f 59f
8:08 25 31 mph 1012.5mb 66f 59f
7:53 25 31 mph 1012.4mb 66f 59f
7:38 25 31 mph 1012.1mb 66f 59f
7:23 20 29 mph 1011.9mb 66f 59f
7:08 27 34 mph 1011.6mb 66f 59f
6:53 25 31 mph 1011.6mb 66f 59f
6:38 27 34 mph 1011.2mb 66f 59f
6:23 22 31 mph 1011.1mb 66f 60f
6:08 25 31 mph 1011.1mb 66f 60f
5:53 27 38 mph 1010.9mb 66f 60f
5:38 27 36 mph 1010.5mb 66f 60f
5:23 29 38 mph 1010.2mb 66f 60f
5:08 27 34 mph 1010.1mb 66f 60f
4:53 27 36 mph 1009.8mb 66f 59f
4:38 29 38 mph 1009.4mb 66f 59f
4:23 25 36 mph 1009.1mb 66f 62f
4:08 16 29 mph 1009.2mb 66f 62f
3:53 13 20 mph 1009.4mb 66f 61f
3:38 16 22 mph 1009.1mb 66f 61f
3:23 11 16 mph 1009.2mb 66f 62f
3:08 13 18 mph 1009.1mb 66f 61f
2:53 16 22 mph 1009.3mb 66f 60f
2:38 13 18 mph 1009.2mb 66f 62f
2:23 13 18 mph 1009mb 66f 60f
2:08 20 27 mph 1008.9mb 66f 59f
1:53 27 34 mph 1008.7mb 67f 59f
1:38 9 36 mph 1009mb 67f 62f
1:23 2 7 mph 1008.7mb 67f 64f
1:08 4 7 mph 1008.7mb 67f 63f
12:53 2 7 mph 1008.7mb 67f 62f
12:38 2 7 mph 1008.8mb 66f 62f
12:23 4 7 mph 1008.9mb 66f 61f
12:08 4 7 mph 1008.9mb 66f 61f
11:53 7 9 mph 1009mb 66f 61f
11:38 9 13 mph 1009.1mb 66f 60f
11:23 9 11 mph 1009.2mb 66f 60f
11:08 9 13 mph 1009.2mb 66f 60f
10:53 9 16 mph 1009.2mb 66f 60f
10:38 9 13 mph 1009.2mb 66f 59f
10:23 11 13 mph 1009.1mb 66f 58f
10:08 13 18 mph 1009.1mb 66f 58f
9:53 11 16 mph 1008.9mb 66f 58f
9:38 13 20 mph 1009mb 66f 58f
9:23 11 16 mph 1008.7mb 66f 59f
9:08 7 11 mph 1008.6mb 66f 59f
8:53 7 11 mph 1008.4mb 66f 59f
8:38 7 11 mph 1008.3mb 66f 59f
8:23 9 13 mph 1008.3mb 66f 58f
8:08 9 13 mph 1008mb 66f 59f
7:53 7 11 mph 1008mb 66f 58f
7:38 9 16 mph 1007.7mb 66f 58f
7:23 11 16 mph 1007.7mb 66f 57f
7:08 11 16 mph 1007.7mb 66f 57f
6:53 9 16 mph 1008.1mb 66f 57f
6:38 11 18 mph 1008.1mb 66f 57f
6:23 13 18 mph 1007.9mb 66f 57f
6:08 13 18 mph 1007.6mb 66f 57f
5:53 13 20 mph 1007.5mb 66f 57f
5:08 16 20 mph 1007.2mb 66f 58f
4:53 13 18 mph 1006.9mb 66f 58f
4:38 11 16 mph 1006.7mb 66f 59f
4:23 11 13 mph 1006.6mb 66f 60f
4:08 11 13 mph 1006.6mb 66f 60f
3:53 9 13 mph 1006.5mb 66f 61f
3:38 9 13 mph 1006.4mb 66f 61f
3:23 7 9 mph 1006.3mb 66f 62f
3:08 4 9 mph 1006.2mb 66f 61f
2:53 4 9 mph 1006.1mb 66f 61f
2:38 4 7 mph 1006.4mb 66f 61f
2:23 4 7 mph 1006.8mb 66f 61f
2:08 4 7 mph 1007.1mb 66f 61f
1:53 4 7 mph 1007.3mb 66f 61f
1:38 7 13 mph 1007.6mb 66f 61f
1:23 4 9 mph 1007.6mb 66f 61f
1:08 4 9 mph 1007.6mb 66f 61f
12:53 7 13 mph 1007.9mb 66f 61f
12:38 11 16 mph 1008mb 66f 61f
12:23 13 18 mph 1008.1mb 66f 61f
12:08 16 20 mph 1007.8mb 66f 61f
jeu. 04/30 11:53 16 20 mph 1007.7mb 66f 61f
11:38 20 25 mph 1007.5mb 66f 60f
11:23 20 27 mph 1007.6mb 66f 60f
11:08 20 27 mph 1008.2mb 66f 60f
10:53 22 29 mph 1008.5mb 66f 61f
10:38 22 31 mph 1008.8mb 66f 62f
10:23 9 13 mph 1007.8mb 66f 62f
10:08 11 16 mph 1007.6mb 66f 62f
9:53 9 13 mph 1007.6mb 66f 62f
9:38 11 16 mph 1007.7mb 66f 62f
9:23 11 16 mph 1007.5mb 66f 62f
9:08 9 13 mph 1007mb 66f 62f
8:53 11 13 mph 1006.6mb 66f 62f
8:38 9 13 mph 1006.4mb 66f 63f
8:23 9 13 mph 1006.4mb 66f 63f
8:08 9 11 mph 1006.1mb 66f 63f
7:53 9 11 mph 1005.9mb 66f 63f
7:38 9 13 mph 1005.4mb 66f 63f
6:08 11 16 mph 1004.7mb 66f 64f
5:53 13 18 mph 1004.7mb 66f 64f
5:38 16 20 mph 1004.7mb 66f 63f
5:23 16 22 mph 1004.7mb 66f 63f
5:08 16 20 mph 1004.6mb 66f 63f
4:53 13 18 mph 1004.5mb 66f 63f
4:38 16 22 mph 1004.4mb 66f 63f
4:23 18 22 mph 1004.4mb 66f 63f
4:08 18 22 mph 1004.3mb 66f 63f
3:53 18 22 mph 1004.2mb 66f 63f
3:38 16 22 mph 1004.5mb 66f 62f
3:23 16 22 mph 1004.7mb 66f 62f
3:08 16 20 mph 1004.6mb 66f 62f
2:53 18 22 mph 1004.8mb 66f 62f
2:38 16 20 mph 1004.9mb 66f 62f
2:23 16 20 mph 1004.8mb 66f 61f
2:08 18 25 mph 1004.7mb 66f 61f
1:53 16 20 mph 1004.7mb 66f 61f
1:38 16 20 mph 1004.6mb 66f 61f
1:23 16 22 mph 1005mb 66f 61f
1:08 13 20 mph 1005.1mb 66f 61f
12:53 16 20 mph 1005.2mb 66f 61f
12:08 16 22 mph 1005.1mb 66f 61f
11:53 16 20 mph 1005.2mb 66f 61f
11:38 16 22 mph 1005.1mb 66f 61f
11:23 13 22 mph 1004.9mb 66f 60f
11:08 13 18 mph 1005.1mb 66f 60f
10:53 16 20 mph 1005mb 66f 60f
10:38 16 20 mph 1004.9mb 66f 59f
10:23 16 20 mph 1005mb 66f 60f
10:08 16 20 mph 1004.8mb 66f 59f
9:53 16 20 mph 1004.8mb 66f 59f
9:38 16 22 mph 1004.8mb 66f 59f
9:23 16 22 mph 1004.8mb 66f 59f
9:08 13 20 mph 1004.9mb 66f 59f
8:53 16 20 mph 1004.8mb 66f 59f
8:38 16 22 mph 1004.8mb 66f 59f
8:23 16 20 mph 1004.8mb 66f 59f
8:08 16 22 mph 1004.9mb 66f 59f
7:53 16 20 mph 1004.7mb 66f 58f
7:38 16 22 mph 1004.4mb 66f 59f
7:23 18 22 mph 1004.4mb 66f 59f
7:08 16 20 mph 1004.2mb 66f 58f
6:53 16 20 mph 1004.2mb 66f 58f
6:38 13 18 mph 1004mb 66f 58f
6:23 13 20 mph 1004mb 66f 59f
6:08 13 18 mph 1004mb 66f 59f
5:53 13 18 mph 1003.9mb 66f 59f
5:38 11 16 mph 1003.9mb 66f 59f
5:23 11 16 mph 1003.7mb 66f 59f
5:08 11 16 mph 1003.7mb 66f 61f
4:53 9 16 mph 1003.7mb 66f 63f
4:38 13 20 mph 1003.3mb 66f 63f
4:23 11 18 mph 1003.5mb 66f 63f
4:08 11 18 mph 1003.7mb 66f 63f
3:53 13 18 mph 1003.6mb 66f 63f
3:38 13 18 mph 1003.7mb 66f 63f
3:23 11 16 mph 1003.9mb 66f 62f
3:08 13 18 mph 1004mb 66f 62f
2:53 13 20 mph 1004.1mb 66f 62f
2:38 13 20 mph 1004.2mb 66f 61f
2:23 16 20 mph 1004.5mb 66f 61f
2:08 13 18 mph 1004.7mb 66f 61f
1:53 13 18 mph 1004.9mb 66f 60f
1:38 11 16 mph 1005.4mb 66f 60f
1:23 11 16 mph 1005.8mb 66f 59f
1:08 9 16 mph 1005.8mb 66f 59f
12:53 11 18 mph 1006.1mb 66f 59f
12:38 13 20 mph 1006mb 66f 59f
12:23 16 20 mph 1006.1mb 66f 58f
12:08 16 20 mph 1006.3mb 66f 58f
mer. 04/29 11:53 11 18 mph 1006.5mb 66f 59f
11:38 11 13 mph 1006.6mb 66f 63f
11:23 9 13 mph 1006.8mb 66f 63f
11:08 11 16 mph 1006.6mb 66f 63f
10:53 13 20 mph 1006.6mb 66f 62f
10:38 16 20 mph 1006.5mb 66f 62f
10:23 18 22 mph 1006.5mb 66f 62f
10:08 16 22 mph 1006.5mb 66f 62f
9:53 16 22 mph 1006.6mb 66f 61f
9:38 16 20 mph 1006.7mb 66f 61f
9:23 16 22 mph 1006.7mb 66f 61f
9:08 16 25 mph 1006.7mb 66f 61f
8:53 16 20 mph 1006.7mb 66f 60f
8:38 16 20 mph 1006.5mb 66f 60f
8:23 16 20 mph 1006.6mb 66f 60f
8:08 16 22 mph 1006.8mb 66f 59f
7:53 18 22 mph 1006.4mb 66f 59f
7:38 20 25 mph 1006.3mb 66f 59f
7:23 20 27 mph 1006.1mb 66f 59f
7:08 20 25 mph 1006.3mb 66f 59f
6:53 18 22 mph 1007.1mb 66f 59f
6:38 20 27 mph 1007mb 66f 59f
6:23 18 25 mph 1006.9mb 66f 60f
6:08 16 20 mph 1006.7mb 66f 61f
5:53 16 20 mph 1006.5mb 66f 62f
5:38 13 18 mph 1006.3mb 66f 63f
5:23 16 22 mph 1006.3mb 66f 63f